GLO1757 SBEG-SBPV

Flight info

Callsign GLO1757
Flight time 1h 6m
Altitude 34000
Route UPOMI UZ74 PVH
Aircraft B738/M-SDE2E3FGHIRWXY/LB1

Departure

Time 2026-04-25 12:57
Airport Eduardo Gomes International Airport (SBEG)

Arrival

Time 2026-04-25 14:03
Airport Governador Jorge Teixeira de Oliveira International Airport (SBPV)
Time Latitude Longitude Altitude Speed Heading
2026-04-25 12:28 -3.03276 -60.04623 267 ft 0 kts
2026-04-25 12:48 -3.03288 -60.04624 267 ft 2 kts
2026-04-25 12:48 -3.03304 -60.04625 267 ft 2 kts
2026-04-25 12:48 -3.03321 -60.04629 267 ft 2 kts 15°
2026-04-25 12:49 -3.03337 -60.04632 267 ft 2 kts 356°
2026-04-25 12:49 -3.03353 -60.04628 267 ft 2 kts 302°
2026-04-25 12:49 -3.03356 -60.04613 267 ft 2 kts 267°
2026-04-25 12:49 -3.03356 -60.04608 267 ft 0 kts 268°
2026-04-25 12:51 -3.03355 -60.04619 267 ft 4 kts 271°
2026-04-25 12:51 -3.03353 -60.04665 267 ft 9 kts 273°
2026-04-25 12:52 -3.03364 -60.04744 267 ft 14 kts 253°
2026-04-25 12:52 -3.03421 -60.04837 267 ft 18 kts 225°
2026-04-25 12:52 -3.03526 -60.04923 267 ft 21 kts 225°
2026-04-25 12:52 -3.03596 -60.05060 267 ft 24 kts 255°
2026-04-25 12:53 -3.03642 -60.05233 267 ft 27 kts 255°
2026-04-25 12:53 -3.03682 -60.05415 267 ft 26 kts 262°
2026-04-25 12:53 -3.03691 -60.05589 267 ft 24 kts 270°
2026-04-25 12:53 -3.03691 -60.05748 267 ft 22 kts 270°
2026-04-25 12:54 -3.03691 -60.05895 267 ft 20 kts 270°
2026-04-25 12:54 -3.03691 -60.06034 267 ft 20 kts 270°
2026-04-25 12:54 -3.03722 -60.06151 267 ft 14 kts 221°
2026-04-25 12:54 -3.03746 -60.06166 267 ft 0 kts 201°
2026-04-25 12:55 -3.03757 -60.06169 267 ft 5 kts 193°
2026-04-25 12:56 -3.03803 -60.06172 268 ft 7 kts 173°
2026-04-25 12:56 -3.03846 -60.06152 268 ft 7 kts 137°
2026-04-25 12:56 -3.03858 -60.06109 268 ft 7 kts 91°
2026-04-25 12:56 -3.03858 -60.05993 268 ft 48 kts 90°
2026-04-25 12:57 -3.03859 -60.05372 267 ft 130 kts 90°
2026-04-25 12:57 -3.03855 -60.04228 301 ft 196 kts 89°
2026-04-25 12:57 -3.03850 -60.02797 1041 ft 208 kts 90°
2026-04-25 12:57 -3.03881 -60.01367 2062 ft 207 kts 98°
2026-04-25 12:58 -3.04550 -60.00034 2386 ft 229 kts 138°
2026-04-25 12:58 -3.06054 -59.99391 2701 ft 252 kts 175°
2026-04-25 12:58 -3.07790 -59.99836 3217 ft 268 kts 213°
2026-04-25 12:58 -3.09015 -60.01220 3876 ft 273 kts 240°
2026-04-25 12:59 -3.10165 -60.02726 4577 ft 276 kts 219°
2026-04-25 12:59 -3.11706 -60.03879 5326 ft 277 kts 215°
2026-04-25 12:59 -3.13282 -60.05008 6067 ft 279 kts 215°
2026-04-25 12:59 -3.14873 -60.06147 6766 ft 282 kts 215°
2026-04-25 13:00 -3.16476 -60.07298 7414 ft 286 kts 216°
2026-04-25 13:00 -3.17552 -60.08073 7844 ft 288 kts 216°
2026-04-25 13:00 -3.19746 -60.09656 8728 ft 293 kts 216°
2026-04-25 13:00 -3.21407 -60.10857 9379 ft 296 kts 216°
2026-04-25 13:01 -3.23090 -60.12078 10042 ft 301 kts 216°
2026-04-25 13:01 -3.24801 -60.13319 10381 ft 317 kts 216°
2026-04-25 13:01 -3.26648 -60.14659 10527 ft 337 kts 216°
2026-04-25 13:01 -3.28586 -60.16067 10841 ft 350 kts 216°
2026-04-25 13:02 -3.30576 -60.17513 11376 ft 355 kts 216°
2026-04-25 13:02 -3.32585 -60.18972 12035 ft 359 kts 216°
2026-04-25 13:02 -3.34589 -60.20429 12679 ft 363 kts 216°
2026-04-25 13:02 -3.36646 -60.21925 13379 ft 365 kts 216°
2026-04-25 13:03 -3.38708 -60.23423 14008 ft 367 kts 216°
2026-04-25 13:03 -3.40785 -60.24934 14547 ft 371 kts 216°
2026-04-25 13:03 -3.42881 -60.26458 15113 ft 374 kts 216°
2026-04-25 13:03 -3.44995 -60.27995 15654 ft 378 kts 216°
2026-04-25 13:04 -3.47133 -60.29550 16190 ft 381 kts 216°
2026-04-25 13:04 -3.49287 -60.31117 16743 ft 385 kts 215°
2026-04-25 13:04 -3.51460 -60.32697 17292 ft 388 kts 215°
2026-04-25 13:04 -3.53654 -60.34293 17820 ft 391 kts 215°
2026-04-25 13:05 -3.55871 -60.35906 18313 ft 395 kts 215°
2026-04-25 13:05 -3.58082 -60.37514 18752 ft 398 kts 215°
2026-04-25 13:05 -3.60333 -60.39152 19222 ft 401 kts 215°
2026-04-25 13:05 -3.62602 -60.40803 19679 ft 403 kts 215°
2026-04-25 13:06 -3.64884 -60.42463 20124 ft 406 kts 215°
2026-04-25 13:06 -3.67180 -60.44135 20564 ft 409 kts 215°
2026-04-25 13:06 -3.69495 -60.45819 21001 ft 412 kts 215°
2026-04-25 13:06 -3.71796 -60.47493 21425 ft 415 kts 215°
2026-04-25 13:07 -3.74142 -60.49201 21857 ft 417 kts 215°
2026-04-25 13:07 -3.76502 -60.50919 22272 ft 420 kts 215°
2026-04-25 13:07 -3.78878 -60.52648 22676 ft 423 kts 214°
2026-04-25 13:07 -3.81241 -60.54369 23073 ft 425 kts 214°
2026-04-25 13:08 -3.83642 -60.56117 23457 ft 428 kts 214°
2026-04-25 13:08 -3.86056 -60.57874 23788 ft 431 kts 214°
2026-04-25 13:08 -3.88490 -60.59647 24124 ft 432 kts 214°
2026-04-25 13:08 -3.90931 -60.61424 24447 ft 435 kts 214°
2026-04-25 13:09 -3.93387 -60.63213 24759 ft 437 kts 214°
2026-04-25 13:09 -3.95853 -60.65009 25066 ft 439 kts 214°
2026-04-25 13:09 -3.98326 -60.66810 25384 ft 441 kts 214°
2026-04-25 13:09 -4.00817 -60.68625 25690 ft 443 kts 214°
2026-04-25 13:10 -4.03319 -60.70448 25994 ft 445 kts 214°
2026-04-25 13:10 -4.05803 -60.72257 26289 ft 447 kts 214°
2026-04-25 13:10 -4.08329 -60.74097 26578 ft 450 kts 214°
2026-04-25 13:10 -4.10865 -60.75945 26880 ft 451 kts 214°
2026-04-25 13:11 -4.13412 -60.77801 27172 ft 453 kts 214°
2026-04-25 13:11 -4.15976 -60.79670 27458 ft 455 kts 214°
2026-04-25 13:11 -4.18513 -60.81519 27734 ft 457 kts 214°
2026-04-25 13:11 -4.21093 -60.83400 28019 ft 459 kts 214°
2026-04-25 13:12 -4.23681 -60.85286 28286 ft 461 kts 214°
2026-04-25 13:12 -4.26274 -60.87176 28557 ft 463 kts 214°
2026-04-25 13:12 -4.28893 -60.89086 28817 ft 465 kts 214°
2026-04-25 13:12 -4.30623 -60.90347 28985 ft 466 kts 214°
2026-04-25 13:13 -4.34144 -60.92915 29329 ft 468 kts 214°
2026-04-25 13:13 -4.36785 -60.94841 29569 ft 470 kts 214°
2026-04-25 13:13 -4.39392 -60.96743 29868 ft 470 kts 215°
2026-04-25 13:13 -4.42040 -60.98675 30226 ft 468 kts 214°
2026-04-25 13:14 -4.44673 -61.00596 30587 ft 466 kts 214°
2026-04-25 13:14 -4.47289 -61.02504 30910 ft 465 kts 214°
2026-04-25 13:14 -4.49908 -61.04415 31215 ft 464 kts 214°
2026-04-25 13:14 -4.52513 -61.06316 31533 ft 463 kts 214°
2026-04-25 13:15 -4.55086 -61.08194 31861 ft 461 kts 214°
2026-04-25 13:15 -4.57682 -61.10088 32160 ft 461 kts 214°
2026-04-25 13:15 -4.60272 -61.11979 32464 ft 460 kts 214°
2026-04-25 13:15 -4.62863 -61.13870 32791 ft 459 kts 214°
2026-04-25 13:16 -4.65440 -61.15751 33112 ft 457 kts 214°
2026-04-25 13:16 -4.68015 -61.17631 33416 ft 457 kts 214°
2026-04-25 13:16 -4.70585 -61.19507 33701 ft 457 kts 214°
2026-04-25 13:16 -4.73154 -61.21383 33974 ft 456 kts 214°
2026-04-25 13:17 -4.78293 -61.25136 33996 ft 461 kts 214°
2026-04-25 13:17 -4.83471 -61.28919 33980 ft 456 kts 214°
2026-04-25 13:18 -4.88591 -61.32660 33998 ft 454 kts 214°
2026-04-25 13:18 -4.93672 -61.36373 33997 ft 454 kts 214°
2026-04-25 13:19 -4.98785 -61.40110 33993 ft 455 kts 214°
2026-04-25 13:19 -5.02207 -61.42612 33994 ft 455 kts 214°
2026-04-25 13:20 -5.09029 -61.47601 33989 ft 456 kts 214°
2026-04-25 13:20 -5.14169 -61.51355 33993 ft 456 kts 213°
2026-04-25 13:21 -5.19379 -61.54919 33991 ft 456 kts 211°
2026-04-25 13:21 -5.24681 -61.58444 33993 ft 457 kts 211°
2026-04-25 13:22 -5.29971 -61.61989 33994 ft 457 kts 212°
2026-04-25 13:23 -5.37882 -61.67333 33993 ft 457 kts 212°
2026-04-25 13:23 -5.43170 -61.70910 33990 ft 457 kts 212°
2026-04-25 13:24 -5.48452 -61.74482 33991 ft 457 kts 212°
2026-04-25 13:24 -5.53706 -61.78037 33993 ft 457 kts 212°
2026-04-25 13:25 -5.58984 -61.81608 33992 ft 457 kts 212°
2026-04-25 13:25 -5.64285 -61.85154 33989 ft 457 kts 211°
2026-04-25 13:26 -5.69563 -61.88623 33993 ft 456 kts 211°
2026-04-25 13:26 -5.74876 -61.92114 33993 ft 456 kts 211°
2026-04-25 13:27 -5.80174 -61.95607 33993 ft 455 kts 211°
2026-04-25 13:27 -5.85477 -61.99107 33991 ft 455 kts 211°
2026-04-25 13:28 -5.90766 -62.02600 33989 ft 454 kts 211°
2026-04-25 13:28 -5.96047 -62.06088 33995 ft 454 kts 211°
2026-04-25 13:29 -6.01302 -62.09560 33989 ft 454 kts 212°
2026-04-25 13:29 -6.06573 -62.13043 33989 ft 453 kts 212°
2026-04-25 13:30 -6.13631 -62.17708 33991 ft 453 kts 212°
2026-04-25 13:31 -6.21514 -62.22920 33991 ft 453 kts 212°
2026-04-25 13:31 -6.26784 -62.26406 33990 ft 454 kts 212°
2026-04-25 13:32 -6.32053 -62.29892 33992 ft 453 kts 212°
2026-04-25 13:32 -6.37327 -62.33383 33994 ft 453 kts 212°
2026-04-25 13:33 -6.42597 -62.36871 33989 ft 454 kts 212°
2026-04-25 13:33 -6.47863 -62.40358 33991 ft 454 kts 212°
2026-04-25 13:34 -6.53137 -62.43854 33995 ft 454 kts 212°
2026-04-25 13:34 -6.58393 -62.47377 34003 ft 454 kts 212°
2026-04-25 13:35 -6.63673 -62.50932 33996 ft 457 kts 212°
2026-04-25 13:35 -6.68907 -62.54454 33975 ft 448 kts 212°
2026-04-25 13:35 -6.71464 -62.56174 33979 ft 437 kts 212°
2026-04-25 13:36 -6.73983 -62.57868 33984 ft 434 kts 212°
2026-04-25 13:36 -6.79025 -62.61256 33655 ft 436 kts 212°
2026-04-25 13:36 -6.81531 -62.62941 33333 ft 430 kts 212°
2026-04-25 13:37 -6.84004 -62.64605 32984 ft 426 kts 212°
2026-04-25 13:37 -6.86465 -62.66261 32607 ft 423 kts 212°
2026-04-25 13:37 -6.88879 -62.67885 32217 ft 421 kts 212°
2026-04-25 13:37 -6.91310 -62.69521 31836 ft 419 kts 212°
2026-04-25 13:38 -6.93729 -62.71148 31451 ft 417 kts 212°
2026-04-25 13:38 -6.96136 -62.72762 31058 ft 415 kts 212°
2026-04-25 13:38 -6.98543 -62.74366 30655 ft 414 kts 212°
2026-04-25 13:38 -7.00944 -62.75963 30290 ft 412 kts 212°
2026-04-25 13:39 -7.03328 -62.77549 29885 ft 411 kts 212°
2026-04-25 13:39 -7.05705 -62.79131 29462 ft 408 kts 212°
2026-04-25 13:39 -7.08065 -62.80703 29054 ft 405 kts 212°
2026-04-25 13:39 -7.10410 -62.82267 28656 ft 402 kts 212°
2026-04-25 13:40 -7.12740 -62.83820 28268 ft 400 kts 212°
2026-04-25 13:40 -7.15026 -62.85345 27891 ft 397 kts 212°
2026-04-25 13:40 -7.17323 -62.86877 27510 ft 395 kts 212°
2026-04-25 13:40 -7.19605 -62.88399 27137 ft 393 kts 212°
2026-04-25 13:41 -7.21874 -62.89913 26760 ft 391 kts 212°
2026-04-25 13:41 -7.24136 -62.91422 26390 ft 389 kts 212°
2026-04-25 13:41 -7.26389 -62.92926 26017 ft 387 kts 212°
2026-04-25 13:41 -7.28632 -62.94423 25637 ft 386 kts 212°
2026-04-25 13:42 -7.30866 -62.95914 25261 ft 384 kts 212°
2026-04-25 13:42 -7.33094 -62.97402 24878 ft 384 kts 212°
2026-04-25 13:42 -7.35316 -62.98885 24514 ft 383 kts 212°
2026-04-25 13:42 -7.37538 -63.00369 24129 ft 382 kts 212°
2026-04-25 13:43 -7.39749 -63.01846 23757 ft 382 kts 213°
2026-04-25 13:43 -7.41972 -63.03331 23343 ft 381 kts 213°
2026-04-25 13:43 -7.44151 -63.04787 22945 ft 379 kts 212°
2026-04-25 13:43 -7.46345 -63.06253 22569 ft 377 kts 212°
2026-04-25 13:44 -7.48533 -63.07715 22204 ft 375 kts 212°
2026-04-25 13:44 -7.50707 -63.09168 21831 ft 373 kts 212°
2026-04-25 13:44 -7.52868 -63.10613 21430 ft 372 kts 212°
2026-04-25 13:44 -7.55023 -63.12053 21042 ft 371 kts 212°
2026-04-25 13:45 -7.57167 -63.13488 20679 ft 369 kts 212°
2026-04-25 13:45 -7.59304 -63.14917 20313 ft 367 kts 212°
2026-04-25 13:45 -7.61431 -63.16341 19955 ft 366 kts 212°
2026-04-25 13:45 -7.63517 -63.17737 19605 ft 364 kts 212°
2026-04-25 13:46 -7.65625 -63.19148 19237 ft 363 kts 212°
2026-04-25 13:46 -7.67733 -63.20560 18877 ft 362 kts 212°
2026-04-25 13:46 -7.69828 -63.21962 18528 ft 361 kts 212°
2026-04-25 13:46 -7.71919 -63.23363 18145 ft 360 kts 212°
2026-04-25 13:47 -7.74006 -63.24761 17762 ft 358 kts 212°
2026-04-25 13:47 -7.76074 -63.26146 17395 ft 355 kts 212°
2026-04-25 13:47 -7.78131 -63.27525 17039 ft 353 kts 212°
2026-04-25 13:47 -7.80144 -63.28874 16696 ft 351 kts 212°
2026-04-25 13:48 -7.82174 -63.30234 16347 ft 349 kts 212°
2026-04-25 13:48 -7.84188 -63.31584 16003 ft 347 kts 212°
2026-04-25 13:48 -7.86199 -63.32931 15663 ft 345 kts 211°
2026-04-25 13:48 -7.88194 -63.34269 15320 ft 343 kts 211°
2026-04-25 13:49 -7.90178 -63.35600 14974 ft 342 kts 211°
2026-04-25 13:49 -7.92159 -63.36929 14635 ft 342 kts 211°
2026-04-25 13:49 -7.94139 -63.38257 14283 ft 342 kts 211°
2026-04-25 13:49 -7.96113 -63.39582 13933 ft 340 kts 211°
2026-04-25 13:50 -7.98083 -63.40905 13573 ft 339 kts 211°
2026-04-25 13:50 -8.00018 -63.42204 13224 ft 338 kts 211°
2026-04-25 13:50 -8.01969 -63.43514 12873 ft 336 kts 211°
2026-04-25 13:50 -8.03904 -63.44814 12540 ft 333 kts 211°
2026-04-25 13:51 -8.05832 -63.46109 12202 ft 331 kts 211°
2026-04-25 13:51 -8.07744 -63.47394 11868 ft 329 kts 212°
2026-04-25 13:51 -8.09648 -63.48673 11542 ft 327 kts 211°
2026-04-25 13:51 -8.11537 -63.49942 11209 ft 326 kts 212°
2026-04-25 13:52 -8.13417 -63.51205 10890 ft 324 kts 212°
2026-04-25 13:52 -8.15297 -63.52469 10550 ft 323 kts 212°
2026-04-25 13:52 -8.17140 -63.53708 10244 ft 321 kts 212°
2026-04-25 13:52 -8.18981 -63.54946 10081 ft 314 kts 212°
2026-04-25 13:53 -8.20781 -63.56156 9942 ft 306 kts 212°
2026-04-25 13:53 -8.22526 -63.57330 9616 ft 304 kts 212°
2026-04-25 13:53 -8.24303 -63.58524 9231 ft 306 kts 212°
2026-04-25 13:53 -8.26076 -63.59724 8880 ft 306 kts 214°
2026-04-25 13:54 -8.27773 -63.61020 8580 ft 305 kts 217°
2026-04-25 13:54 -8.29424 -63.62369 8269 ft 305 kts 218°
2026-04-25 13:54 -8.31065 -63.63726 7954 ft 304 kts 218°
2026-04-25 13:54 -8.32679 -63.65058 7653 ft 303 kts 218°
2026-04-25 13:55 -8.34309 -63.66397 7353 ft 301 kts 218°
2026-04-25 13:55 -8.35941 -63.67729 7055 ft 301 kts 217°
2026-04-25 13:55 -8.37569 -63.69056 6748 ft 300 kts 218°
2026-04-25 13:55 -8.39197 -63.70381 6436 ft 299 kts 217°
2026-04-25 13:56 -8.40815 -63.71696 6116 ft 298 kts 217°
2026-04-25 13:56 -8.42382 -63.72969 5798 ft 293 kts 217°
2026-04-25 13:56 -8.43974 -63.74263 5516 ft 286 kts 217°
2026-04-25 13:56 -8.45490 -63.75495 5213 ft 281 kts 217°
2026-04-25 13:57 -8.46999 -63.76720 4933 ft 275 kts 217°
2026-04-25 13:57 -8.48002 -63.77535 4728 ft 271 kts 217°
2026-04-25 13:57 -8.49916 -63.79089 4360 ft 261 kts 217°
2026-04-25 13:57 -8.51306 -63.80220 4149 ft 250 kts 218°
2026-04-25 13:58 -8.52345 -63.81573 4016 ft 240 kts 248°
2026-04-25 13:58 -8.52706 -63.83172 3970 ft 233 kts 265°
2026-04-25 13:58 -8.52806 -63.84770 3906 ft 223 kts 267°
2026-04-25 13:58 -8.52877 -63.86337 3787 ft 224 kts 268°
2026-04-25 13:59 -8.52952 -63.87887 3605 ft 215 kts 268°
2026-04-25 13:59 -8.53071 -63.89362 3396 ft 205 kts 256°
2026-04-25 13:59 -8.53809 -63.90494 3205 ft 191 kts 207°
2026-04-25 13:59 -8.55019 -63.90825 3075 ft 178 kts 183°
2026-04-25 14:00 -8.56246 -63.90931 2880 ft 181 kts 179°
2026-04-25 14:00 -8.57526 -63.90991 2640 ft 185 kts 176°
2026-04-25 14:00 -8.58829 -63.90957 2400 ft 189 kts 174°
2026-04-25 14:00 -8.60146 -63.90881 2097 ft 189 kts 174°
2026-04-25 14:01 -8.61429 -63.90804 1810 ft 177 kts 173°
2026-04-25 14:01 -8.62588 -63.90733 1651 ft 157 kts 172°
2026-04-25 14:01 -8.63631 -63.90670 1452 ft 148 kts 173°
2026-04-25 14:01 -8.64673 -63.90607 1257 ft 151 kts 174°
2026-04-25 14:02 -8.65697 -63.90545 1070 ft 150 kts 174°
2026-04-25 14:02 -8.66744 -63.90482 898 ft 149 kts 174°
2026-04-25 14:02 -8.67779 -63.90422 752 ft 149 kts 175°
2026-04-25 14:02 -8.68132 -63.90405 686 ft 149 kts 175°
2026-04-25 14:03 -8.69888 -63.90296 383 ft 156 kts 174°
2026-04-25 14:03 -8.70858 -63.90233 299 ft 88 kts 177°
2026-04-25 14:03 -8.71228 -63.90212 299 ft 47 kts 176°
2026-04-25 14:03 -8.71386 -63.90199 302 ft 10 kts 160°
2026-04-25 14:04 -8.71420 -63.90147 300 ft 9 kts 96°
2026-04-25 14:04 -8.71417 -63.90082 300 ft 9 kts 85°
2026-04-25 14:04 -8.71421 -63.90046 299 ft 3 kts 108°
2026-04-25 14:04 -8.71425 -63.90027 299 ft 3 kts 94°
2026-04-25 14:05 -8.71424 -63.90008 299 ft 3 kts 89°
2026-04-25 14:05 -8.71423 -63.89990 299 ft 3 kts 87°
2026-04-25 14:05 -8.71423 -63.89972 299 ft 3 kts 86°
2026-04-25 14:05 -8.71422 -63.89954 299 ft 2 kts 86°
2026-04-25 14:06 -8.71421 -63.89938 299 ft 2 kts 86°
2026-04-25 14:06 -8.71420 -63.89934 299 ft 0 kts 86°